Weather Roundup
Issued by NWS Corpus Christi, TX

Home | Current Version | Previous Version | Text Only | Print | Product List | Glossary On
Versions: 1 2 3 4 5 6 7 8 9 10 11 12 13 14 15 16 17 18 19 20 21 22 23 24 25 26 27 28 29 30 31 32 33 34 35 36 37 38 39 40 41 42 43 44 45 46 47 48 49 50
000
ASUS44 KCRP 221110
HRRCRP

SOUTH TEXAS REGIONAL WEATHER ROUNDUP
NATIONAL WEATHER SERVICE CORPUS CHRISTI TX
600 AM CDT MON SEP 22 2014


TXZ229>244-221200-
...CORPUS CHRISTI AREA OBSERVATIONS...

CITY           SKY/WX    TMP DP  RH WIND       PRES   REMARKS
CORPUS CHRISTI PTCLDY    76  73  91 N5        30.02R
NAS CORPUS CHR PTCLDY    80  72  76 E13       30.01R
ROCKPORT       CLEAR     76  74  93 N7        30.03R
KINGSVILLE NAS CLEAR     72  72 100 N6        30.02R
ALICE          CLEAR     73  71  93 N7        30.03R
FALFURRIAS     PTCLDY   N/A N/A N/A N5        30.01S
$$

...VICTORIA AREA OBSERVATIONS...

CITY           SKY/WX    TMP DP  RH WIND       PRES   REMARKS
VICTORIA       CLEAR     71  69  93 N5        30.05R
BEEVILLE       FAIR      71  71 100 N5        30.04S
PLEASANTON     CLEAR     69  66  92 N3        30.08S FOG
SAN ANTONIO    CLEAR     69  64  84 NW3       30.10R
$$

...LAREDO AREA OBSERVATIONS...

CITY           SKY/WX    TMP DP  RH WIND       PRES   REMARKS
LAREDO         CLEAR     73  73 100 N6        30.08R
COTULLA        CLEAR     73  68  84 NE5       30.07R
DEL RIO        CLOUDY    76  70  82 SE6       30.09R
MCALLEN        CLOUDY    77  74  90 NE6       29.99S
HEBBRONVILLE     N/A     72  70  92 N3        30.06R
$$

...OTHER TEXAS OBSERVATIONS...

CITY           SKY/WX    TMP DP  RH WIND       PRES   REMARKS
BROWNSVILLE    MOCLDY    77  75  93 NE6       29.96F
HOUSTON        PTCLDY    74  70  87 NW3       30.05R
COL. STATION   CLEAR     73  67  81 CALM      30.08R
AUSTIN         CLEAR     68  66  93 CALM      30.09R
WACO           MOCLDY    71  67  87 NE6       30.11R
FORT WORTH     CLOUDY    75  56  51 NE10      30.15R
WICHITA FALLS  MOCLDY    69  55  60 NE8       30.20R
LUBBOCK        CLOUDY    65  63  93 E9        30.26S FOG
EL PASO        CLOUDY    70  65  84 N9        30.16S
$$

...MARINE OBSERVATIONS...

STATION/POSITION TIME  SKY/WX   TEMP    WIND        PRES    VSBY  WAVE   SWELL
                                AIR SEA DIR/SP/G                  HT/PER HT/PER
                 (UTC)          (F)     (DEG/KT/KT) (MB)    (MI)  (FT/S) (FT/S)
PORT ARANSAS     1100            83 83   50/ 15/ 17 1016.7R
BUOY 90 E PORT A 1100            83 84   70/ 12/ 16 1016.3R         4/ 7   3/ 7
BUOY 45 SE BAFFI 1100            83 84   60/ 16/ 17 1014.7R         5/ 7
BUOY 200 E PT IS 1100            83 85   80/ 12/ 14 1014.4R         4/ 6   3/ 6
BUOY 15 E GALVES 1100            82 83   20/  6/  8 1016.3R         2/ 6   2/ 6
$$


USA.gov is the U.S. government's official web portal to all federal, state and local government web resources and services.